Regional Weather Roundup
Issued by NWS Tiyan, Guam

Home | Current Version | Previous Version | Text Only | Print | Product List | Glossary On
Versions: 1 2 3 4 5 6 7 8 9 10 11 12 13 14 15 16 17 18 19 20 21 22 23 24 25 26 27
000
ASGM40 PGUM 251012
RWRGUM
WEATHER ROUNDUP FOR THE MARIANAS
NATIONAL WEATHER SERVICE TIYAN GU
800 PM CHST SAT MAR 25 2017

GUZ001>004-251100-
MARIANA ISLANDS-

CITY           SKY/WX    TMP DP  RH WIND       PRES   REMARKS
GUAM AIRPORT   CLEAR     81  73  78 E8        29.95R
ANDERSEN AFB   CLEAR     77  72  83 E12       29.97R
ROTA AIRPORT   PTCLDY    79  72  78 E6        29.96R
TINIAN AP      PTCLDY    79  73  83 E6        29.94R
SAIPAN AP      PTCLDY    79  73  83 E7        29.95R

$$





USA.gov is the U.S. government's official web portal to all federal, state and local government web resources and services.